This is the latest recevied weather packets stored in our database for station/object KC8RFE-1. If no packets are shown the sender has not sent any weather packets the latest 1 day(s).
| Time | Temp. | Humidity | Pressure | Rain* | Wind** | Luminosity | Snow |
|---|---|---|---|---|---|---|---|
| 1777985910 | 11.11° C | 6% | - | 0 mm | 1.34 m/s, 290° | - | - |
| 1777985610 | 11.11° C | 6% | - | 0 mm | 0.89 m/s, 261° | - | - |
| 1777985310 | 11.67° C | 6% | - | 0 mm | 0.89 m/s, 264° | - | - |
| 1777985010 | 11.67° C | 6% | - | 0 mm | 0.89 m/s, 271° | - | - |
| 1777984710 | 11.67° C | 6% | - | 0 mm | 0.89 m/s, 327° | - | - |
| 1777984410 | 11.67° C | 6% | - | 0 mm | 0.45 m/s, 288° | - | - |
| 1777984110 | 11.11° C | 6% | - | 0 mm | 0.89 m/s, 266° | - | - |
| 1777983810 | 11.11° C | 6% | - | 0 mm | 0.45 m/s, 28° | - | - |
| 1777983510 | 11.11° C | 6% | - | 0 mm | 0.45 m/s, 286° | - | - |
| 1777983210 | 11.11° C | 6% | - | 0 mm | 1.34 m/s, 270° | - | - |
| 1777982910 | 11.11° C | 6% | - | 0 mm | 0.45 m/s, 270° | - | - |
| 1777982609 | 11.11° C | 6% | - | 0 mm | 0.45 m/s, 270° | - | - |
| 1777982309 | 11.11° C | 6% | - | 0 mm | 0 m/s | - | - |
| 1777982009 | 11.11° C | 6% | - | 0 mm | 0 m/s | - | - |
| 1777981709 | 11.11° C | 6% | - | 0 mm | 0.45 m/s, 272° | - | - |
| 1777981409 | 11.11° C | 6% | - | 0 mm | 0.89 m/s, 267° | - | - |
| 1777981109 | 11.11° C | 6% | - | 0 mm | 0.45 m/s, 269° | - | - |
| 1777980809 | 11.11° C | 6% | - | 0 mm | 0.89 m/s, 270° | - | - |
| 1777980509 | 11.11° C | 6% | - | 0 mm | 0.89 m/s, 337° | - | - |
| 1777980209 | 11.11° C | 6% | - | 0 mm | 1.34 m/s, 293° | - | - |
| 1777979909 | 11.11° C | 6% | - | 0 mm | 0.89 m/s, 290° | - | - |
| 1777979609 | 11.11° C | 6% | - | 0 mm | 0.89 m/s, 260° | - | - |
| 1777979309 | 11.11° C | 6% | - | 0 mm | 0.89 m/s, 273° | - | - |
| 1777979009 | 11.11° C | 6% | - | 0 mm | 0.89 m/s, 270° | - | - |
| 1777978709 | 11.11° C | 6% | - | 0 mm | 0.89 m/s, 267° | - | - |
* Rain latest hour (hover to see other rain measurements)
** Current wind speed in m/s (hover to see current wind gust speed)